Reflectivity
-20 -20 -20 -20 -20 -20 -9 1 9 -1 -20 -20 -20 -20 -20 -20 -20 -20 -3 16 16 -3 -17 7 2 5 -18 -1 -4 -19 -17 -20 1 22 11 -10 7 -5
-20 -20 -20 -20 -20 -20 -20 -20 -20 -3 -17 -20 -20 -20 -20 -20 -20 -20 -20 -20 2 -5 9 33 18 -6 -14 -10 4 -12 19 19 21 19 20 19 14 11
-20 -20 -20 -20 -20 -20 -20 -18 -20 -9 7 -20 -20 -20 -20 -20 -20 -18 -9 -20 -2 2 9 1 8 -20 -14 -2 -10 -4 19 21 24 23 26 24 16 16
-20 -20 -20 -20 -20 -20 -20 -20 -20 -19 -2 -20 -20 -20 -20 -6 -20 -20 -20 -20 -20 12 4 11 -3 -7 -18 6 -11 0 10 11 10 20 17 6 17 5
-20 -20 -20 -20 -20 -20 -20 -20 -20 -20 6 -16 -20 -20 -20 -20 -20 -16 -17 -20 -1 26 17 14 -12 3 9 2 -16 4 -20 0 13 6 18 2 1 -20
-20 -20 -20 -20 -20 -20 -20 -20 -19 -20 -20 -20 -18 -13 -20 -20 -20 -20 -20 -18 -11 6 21 16 4 7 -2 -18 -4 5 -20 10 9 -18 -16 -18 -20 -20
-20 -20 -20 -20 -20 -20 -20 -20 -20 -20 -7 -18 -19 0 -20 -20 -12 -17 17 15 12 1 -4 -15 -6 -4 -20 7 -0 -16 5 6 5 -18 -20 -20 -20 -20
-20 -20 -20 -20 -20 -20 -20 -20 -20 -20 -20 -3 -20 -18 4 -20 -10 -12 11 8 11 -1 0 8 -8 -16 -20 -20 -20 -12 -20 -9 -2 -16 -17 -20 -20 -20
-20 -20 -20 -20 -20 -20 -20 -20 -20 -20 -20 -20 -20 -20 -20 -20 -20 -20 -20 -15 -3 16 -4 -13 -16 -20 -20 -20 -20 -20 -19 -19 -20 -20 -6 -14 -20 -20
-20 -20 -20 -20 -20 -20 -20 -20 -20 -20 -20 -20 -6 -0 -20 -20 -20 -20 -20 -3 7 -9 -12 3 7 -2 -20 -20 -20 -5 -19 -20 -20 -5 -14 -20 -20 -20
-20 -20 -20 -20 -20 -20 -20 -20 -20 -20 -20 -13 7 7 11 6 -11 -10 -12 -15 -5 -19 -20 5 -13 -20 -9 -20 -20 -20 -20 -6 5 5 -20 -20 -20 -20
-20 -20 -20 -20 -20 -20 -20 -20 -20 -20 -20 -20 -20 2 5 3 3 -10 -20 -20 -20 -19 -20 -20 -20 -20 -20 -20 -20 -20 -20 -20 -12 -20 -20 -20 -7 -20
-20 -20 -20 -20 -20 -20 1 -20 -20 -20 -20 -20 -20 -20 -11 -12 -5 -3 -3 -8 -18 -4 -0 -20 -20 -20 -20 -20 -20 -20 -20 -20 -20 -1 -6 4 -9 -20
-20 -20 -20 -20 -20 -20 -20 6 3 -20 -20 -20 -20 -20 -20 -20 -20 -20 -20 -19 -20 -4 -7 2 -17 -20 -20 -20 -20 -18 -20 -20 -20 -20 -20 -20 -20 -20
-20 -8 -20 -20 -20 -20 -20 -20 -12 -20 -20 -20 -20 -20 -20 -20 -20 -20 -20 -20 -20 -20 -20 -20 -11 -19 -20 -20 -20 -20 -19 -20 -20 -20 -20 -20 -20 -20
-10 -20 -20 -20 -19 -15 -20 -20 -20 -20 -20 -20 -20 -20 -20 -20 -20 -20 -20 -20 -20 -20 -20 -20 -20 -20 -20 -20 -20 -20 -20 -20 -20 -20 -20 -20 -20 -20
-20 -20 -20 -20 -20 -20 -20 -20 -20 -20 -20 -20 -20 -20 -20 -20 -20 -20 -20 -20 -20 -20 -20 -20 -20 -20 -20 -20 -20 -20 -20 -20 -20 -20 -20 -20 -20 -20
-20 -20 -20 -20 -20 -20 -20 -20 -20 -20 -20 -20 -20 -20 -20 -20 -20 -20 -20 -20 -20 -20 -20 -20 -20 -20 -20 -20 -20 -20 -20 -20 -20 -20 -20 -20 -20 -20
-17 -20 -20 -20 -20 -20 -20 -20 -20 -20 -20 -20 -20 -20 -20 -20 -20 -20 -20 -20 -20 -20 -20 -20 -20 -20 -20 -20 -20 -20 -20 -20 -15 4 -20 -20 -20 -20
-20 -20 -20 -20 -20 -20 -20 -20 -20 -20 -20 -20 -20 -20 -20 -16 -20 -20 -20 -20 -20 -20 -15 -20 -20 -20 -20 -20 -20 -5 -20 -20 -20 -20 -20 -20 -20 -20
-20 -20 -20 -20 -19 -20 -20 -20 -20 -20 -20 -20 -20 -20 -20 -2 -20 -20 -20 -20 -20 -20 -20 -18 -13 -15 -13 -1 -18 -11 -20 -20 -20 -18 -8 1 -5 -17
-16 -17 -20 -7 -3 -18 -14 -14 -15 -19 -20 -20 -20 -20 -20 -20 -20 -20 -20 -20 -20 -20 -20 -20 -20 -20 3 -3 -20 4 -20 -20 -20 -20 -20 -10 -19 -20
7 -6 -10 -3 -1 2 -7 -15 -18 -20 -20 -20 -20 -20 -20 -20 -20 -20 -20 -20 -20 -20 -20 -20 -20 -20 -20 0 -10 13 -20 -20 -20 -20 -20 -1 -10 -20
Wind_Speed
4 3 2 2 1 2 3 3 4 6 5 4 3 1 2 3 4 5 4 4 5 6 6 5 5 6 7 8 10 15 16 17 19 21 19 17 14 11
3 4 3 2 3 3 3 4 4 5 6 3 1 2 3 3 4 6 4 4 6 6 5 4 4 4 5 7 7 8 12 15 17 17 16 17 15 12
5 4 4 3 3 3 3 3 4 5 6 2 2 0 1 5 4 3 2 2 2 4 5 4 4 4 6 6 6 5 8 12 12 12 12 14 13 10
5 5 4 2 2 2 2 4 4 4 1 4 2 2 4 4 4 5 2 1 1 0 3 3 5 7 7 9 10 8 8 8 9 9 10 11 11 8
5 5 4 1 1 2 3 4 4 3 4 3 2 1 2 2 2 2 2 2 2 2 4 6 5 7 8 7 8 7 8 9 7 6 9 12 9 8
5 4 4 1 2 3 4 4 5 5 3 3 1 2 2 1 1 2 2 0 1 2 5 5 4 6 7 7 7 6 5 4 6 9 8 8 6 7
4 3 3 2 3 4 4 3 5 5 4 3 2 2 2 2 4 2 2 2 0 0 1 1 1 2 1 7 5 4 4 5 5 6 8 7 7 8
3 3 2 2 3 3 3 4 5 4 3 3 2 3 3 2 2 3 3 3 3 4 3 2 2 2 1 2 5 6 6 6 6 7 7 8 7 8
3 2 2 1 4 4 1 2 3 5 3 4 5 5 3 2 3 4 4 3 3 2 3 3 3 3 3 3 5 7 7 7 7 8 8 7 8 8
3 3 1 3 4 4 4 4 5 4 3 4 5 6 5 4 4 3 4 4 3 1 1 3 3 5 4 4 5 9 8 7 7 8 9 8 7 8
4 1 2 4 2 4 3 3 5 4 2 3 5 7 6 6 4 4 3 4 2 2 3 1 2 2 3 4 5 9 9 8 7 9 10 10 9 8
3 3 3 6 4 4 6 5 5 4 2 2 2 4 6 7 5 2 3 3 3 2 4 4 3 4 3 3 4 4 4 6 7 8 11 12 11 5
3 4 3 4 5 7 8 6 4 2 1 1 1 2 2 2 2 2 2 0 2 1 3 5 3 4 1 3 3 4 4 4 3 2 9 11 11 7
5 2 2 4 6 7 8 9 6 3 2 2 1 1 2 1 1 3 3 2 2 1 5 2 3 3 3 3 3 4 4 4 3 4 4 4 5 7
4 4 6 5 7 8 9 7 6 4 4 3 2 2 1 0 2 2 3 4 4 4 3 2 1 3 2 2 3 4 5 5 5 4 4 4 5 5
4 5 5 4 5 6 5 5 4 4 4 4 3 2 2 2 2 2 1 2 1 2 3 2 1 2 3 2 2 4 4 3 5 5 4 4 4 5
3 2 2 3 4 4 5 4 4 5 5 4 4 4 4 3 3 3 2 2 3 2 4 3 2 1 1 2 3 4 5 4 4 5 5 5 6 7
3 3 4 4 4 4 5 5 6 6 5 5 5 5 5 4 4 3 3 4 4 4 3 4 3 2 2 6 9 4 5 5 5 6 5 5 6 6
3 4 4 5 5 4 4 6 6 5 2 4 5 5 5 5 6 5 5 5 5 5 4 4 5 5 5 3 3 13 4 5 5 6 6 6 3 3
4 5 5 5 5 5 5 5 6 5 5 5 5 5 5 5 6 6 6 7 6 5 5 5 6 7 5 2 1 1 12 5 6 6 6 5 5 10
5 5 5 5 5 5 5 6 6 5 5 5 5 5 6 6 7 6 6 10 9 7 7 7 7 9 2 2 2 3 4 16 9 6 4 4 3 3
3 4 4 4 5 5 5 4 5 6 5 6 6 5 5 6 7 7 7 7 8 7 7 4 4 6 6 6 6 6 3 3 12 15 11 8 4 4
3 4 4 4 4 4 4 5 5 5 6 6 6 6 6 7 7 8 7 7 7 7 7 6 6 6 7 7 8 7 8 6 4 6 8 20 22 21
Wind_Direction
178 165 190 158 228 242 257 251 251 272 284 254 250 192 235 226 219 205 201 154 97 85 88 77 85 91 89 67 42 31 45 100 126 139 144 143 146 143
155 176 178 192 230 243 247 250 246 259 259 313 16 67 209 224 196 229 207 162 139 135 125 136 106 107 90 98 85 74 74 93 120 133 142 142 142 142
169 169 181 193 217 226 236 237 252 253 256 259 292 309 254 218 197 197 184 195 147 142 141 144 120 106 101 91 105 129 128 121 125 136 151 146 139 145
170 183 168 194 214 232 285 273 255 266 283 273 208 236 233 231 195 176 167 82 29 208 154 157 147 123 107 93 69 61 74 111 138 150 154 138 141 144
155 151 120 246 217 279 252 280 288 298 260 254 241 216 219 182 132 92 134 86 54 339 206 161 140 130 118 114 109 98 85 73 69 103 124 133 147 148
117 115 113 114 283 271 278 286 284 267 268 259 254 232 231 163 166 158 173 84 99 56 68 66 139 141 143 133 130 118 104 112 115 114 118 120 135 165
132 132 113 46 311 313 279 261 276 286 295 303 249 227 211 186 210 154 135 111 270 202 112 108 74 122 108 135 125 138 154 164 160 153 155 161 171 165
137 116 93 204 234 296 347 18 331 290 316 294 270 241 240 214 162 157 120 152 216 189 165 169 203 188 165 173 176 176 184 192 185 177 168 171 167 170
144 152 169 168 257 277 274 322 313 355 338 290 272 272 273 220 162 167 176 168 179 140 186 185 184 201 177 190 198 190 184 194 198 181 171 172 172 182
146 84 325 298 287 306 320 315 298 292 329 293 273 283 287 293 211 193 174 118 80 107 220 174 171 205 177 186 198 193 179 181 193 188 184 184 179 185
83 104 265 267 289 303 271 274 275 266 203 1 16 6 319 278 181 129 151 151 162 195 183 148 179 158 209 197 186 195 183 191 198 207 207 193 181 182
169 200 230 282 310 257 263 268 263 279 276 302 340 13 22 53 57 351 164 181 125 178 190 172 154 169 186 198 189 184 181 199 212 218 210 199 179 191
209 209 211 224 268 272 256 243 272 308 246 283 357 26 17 25 20 17 9 103 144 163 178 158 171 170 160 136 179 197 197 170 166 160 198 176 183 205
227 207 217 236 251 255 258 230 230 233 259 256 274 275 285 312 39 32 32 32 32 9 180 123 145 176 162 157 165 177 201 200 193 181 175 160 175 216
217 214 202 213 242 248 253 258 230 227 243 245 257 254 250 58 121 95 76 80 69 60 64 41 116 151 187 178 151 173 163 203 196 189 182 197 204 214
214 214 200 207 248 264 258 240 233 240 249 254 249 217 179 197 209 145 191 171 188 140 65 53 103 156 168 210 174 167 186 177 185 194 197 207 221 231
167 150 180 219 232 238 241 239 235 234 235 243 231 221 216 209 210 171 192 198 231 192 183 159 131 143 214 171 201 211 185 185 178 182 193 220 223 226
180 204 216 220 223 236 249 245 232 235 235 233 227 224 219 212 208 197 196 212 223 208 200 184 173 186 222 220 217 202 203 200 185 188 204 230 246 233
201 201 212 213 217 212 236 248 248 235 200 218 226 222 218 211 209 212 213 219 222 221 206 186 190 216 215 230 137 218 204 190 185 202 205 208 236 252
186 209 214 216 215 216 220 233 243 235 216 224 220 217 215 216 213 219 218 220 224 219 217 201 208 213 209 238 188 133 206 207 203 208 206 219 249 272
210 219 218 214 216 213 229 233 230 223 208 203 220 217 213 210 221 223 223 221 222 221 226 222 218 211 148 125 241 212 197 215 218 199 185 205 225 257
212 229 224 221 218 218 217 222 223 231 222 217 222 215 217 214 223 221 223 219 219 221 224 226 162 179 192 207 233 237 199 196 220 228 226 221 173 214
230 235 235 228 222 220 216 216 219 227 218 220 218 217 217 224 225 231 229 223 223 222 215 214 198 207 211 216 219 238 235 219 211 218 228 230 238 248